User: anonymous   Login
Location: Usti nad Orlici
(49.9830°N, 16.4000°E)
Time: 12:01:41
(UTC+02:00)
Language:

ISS - Orbit

View from above orbital plane
View from above orbital plane
View from above satellite
View from above satellite

Ground track
Ground track

The orbit data is extracted from the following two-line orbital elements,

1 25544U 98067A   19290.06314727  .00000390  00000-0  14778-4 0  9994
2 25544  51.6434 116.9252 0007119 154.9791 351.3388 15.50200857194160
Epoch (UTC): 17 October 2019 01:30:55
Eccentricity: 0.0007119
inclination: 51.6434°
perigee height: 411 km
apogee height: 421 km
right ascension of ascending node: 116.9252°
argument of perigee: 154.9791°
revolutions per day: 15.50200857
mean anomaly at epoch: 351.3388°
orbit number at epoch: 19416

The dashed part of the orbit path shows where the satellite is in the earth's shadow,  

DLR